Home > Time Zones > World Clock > Weather > India > Surat > Past weeks

Flag Weather past 2 weeks in Surat, Gujarat, India

Now
N/A

Haze.


Feels Like: N/A
Forecast: 74 / 91 °F
Wind: 2 mph from North

Location: Ahmadabad Airport

Current Time: Oct 30, 2014 at 10:20:55 PM

Latest Report: Oct 30, 2014 at 9:40 PM


Visibility: 2 mi

Pressure: N/A

Humidity: N/A

Dew point: N/A

Location of SuratLocation

Historic Weather in Surat — Graph

°F

Surat temperature yesterday

Maximum temperature yesterday: 95 °F (at 1:40 PM)
Minimum temperature yesterday: 70 °F (at 4:10 AM)
Average temperature yesterday: 83 °F

Past Weeks' High & Low Weather Summary

 TemperatureHumidityPressure
High100 °F (Oct 16, 2:40 PM)88% (Oct 25, 5:10 AM)30.01 "Hg (Oct 25, 5:10 AM)
Low66 °F (Oct 19, 5:40 AM)24% (Oct 18, 2:10 PM)29.77 "Hg (Oct 19, 4:10 PM)
Average83 °F57%29.88 "Hg
* Reported Oct 15 8:40 PM — Oct 30 9:10 PM, Surat, Weather by CustomWeather, © 2014

Note: Actual official high and low records may vary slightly from our data, if they occured in-between our weather recording intervals... More about our weather records

Advertising

Surat weather history for previous 24 hours

 ConditionsComfort  
Time TempWeatherWind HumidityBarometerVisibility
9:10 PM
Oct 30
N/AHaze.2 mphN/AN/A2 mi
8:40 PMN/AHaze.2 mphN/AN/A2 mi
8:10 PM81 °FPassing clouds.No wind70%29.86 "Hg2 mi
7:40 PM81 °FPassing clouds.No wind62%29.86 "Hg2 mi
7:10 PM81 °FPassing clouds.3 mph62%29.86 "Hg2 mi
6:40 PM82 °FPassing clouds.No wind66%29.83 "Hg2 mi
6:10 PM82 °FPartly sunny.3 mph66%29.83 "Hg2 mi
5:40 PM84 °FPartly sunny.2 mph62%29.83 "Hg2 mi
5:10 PM86 °FPartly sunny.No wind55%29.83 "Hg2 mi
4:40 PM88 °FPartly sunny.3 mph55%29.83 "Hg2 mi
4:10 PM90 °FPartly sunny.3 mph46%29.83 "Hg2 mi
3:10 PM91 °FPartly sunny.No wind41%29.83 "Hg2 mi
2:40 PM91 °FPartly sunny.No wind41%29.83 "Hg2 mi
1:10 PM90 °FPartly sunny.No wind46%29.86 "Hg3 mi
12:40 PM90 °FPartly sunny.3 mph41%29.89 "Hg3 mi
12:10 PM90 °FPartly sunny.3 mph46%29.89 "Hg3 mi
10:40 AM84 °FPartly sunny.2 mph51%29.95 "Hg2 mi
9:10 AM81 °FPartly sunny.No wind58%29.92 "Hg2 mi
8:40 AM79 °FPartly sunny.No wind61%29.92 "Hg2 mi
8:10 AM77 °FPartly sunny.No wind65%29.92 "Hg2 mi
7:10 AM75 °FPassing clouds.2 mph69%29.92 "Hg2 mi
6:40 AM75 °FPassing clouds.2 mph69%29.89 "Hg2 mi
6:10 AM73 °FPassing clouds.No wind74%29.89 "Hg2 mi
5:40 AM73 °FPassing clouds.2 mph74%29.89 "Hg2 mi
4:10 AM75 °FPassing clouds.2 mph65%29.86 "Hg2 mi
3:40 AM75 °FPassing clouds.3 mph65%29.86 "Hg2 mi
3:10 AM75 °FPassing clouds.3 mph69%29.89 "Hg2 mi
2:40 AM75 °FPassing clouds.3 mph69%29.89 "Hg2 mi
2:10 AM75 °FFog.3 mph69%29.89 "Hg2 mi
1:40 AM73 °FFog.3 mph78%29.86 "Hg2 mi
12:40 AM75 °FFog.2 mph83%29.89 "Hg2 mi
12:10 AM75 °FFog.No wind83%29.89 "Hg2 mi
11:40 PM
Oct 29
77 °FFog.2 mph79%29.89 "Hg2 mi
11:10 PM77 °FFog.2 mph79%29.89 "Hg2 mi
10:40 PM77 °FFog.2 mph79%29.89 "Hg2 mi
10:10 PM79 °FPassing clouds.2 mph74%29.92 "Hg2 mi
Weather by CustomWeather, © 2014

See weather overviewHow to use our weather pages